EHI
9 9 11 11 7 4 5 5 6 7 7 7 7 7 7 7 4 4 7 14 18 20 19 18 18 18 15 13 12 11 9 9 9 10 9 8 7 6 4 3 4 5 5
9 8 9 10 7 4 4 4 6 8 8 7 6 8 10 11 9 7 9 13 16 18 19 20 21 21 18 16 15 14 13 12 12 12 11 10 9 7 4 3 3 4 5
8 8 7 7 7 6 5 5 7 10 11 8 7 9 13 15 14 13 13 14 15 17 19 22 23 22 21 19 18 18 18 17 15 13 13 12 11 9 7 5 4 4 5
9 8 7 7 8 9 8 7 8 11 12 10 8 10 13 15 16 16 17 18 19 18 19 22 23 22 22 20 19 19 20 20 18 15 14 14 13 11 9 8 6 4 4
9 8 8 9 11 10 9 7 8 10 11 10 8 8 11 14 15 14 16 19 20 18 16 18 21 20 20 19 19 19 20 21 20 17 16 15 14 12 10 10 7 5 3
11 9 9 12 12 9 6 6 7 7 10 12 9 7 9 12 12 10 11 13 15 13 11 15 20 19 17 17 18 19 19 19 18 17 14 14 13 11 10 11 10 6 4
11 10 11 14 12 8 5 5 6 6 9 11 9 7 7 9 8 8 11 13 11 9 9 14 19 21 18 17 17 17 17 17 16 15 13 11 11 10 10 11 10 7 5
9 10 12 12 11 9 6 6 7 7 7 8 8 5 5 6 6 7 11 13 12 10 11 13 17 20 20 19 17 16 16 16 16 15 13 11 9 9 10 10 9 7 6
11 11 11 10 10 9 9 9 9 8 6 5 5 5 5 5 5 5 7 9 9 11 11 11 13 17 21 22 19 16 14 14 13 12 12 10 8 9 10 10 9 7 6
15 14 12 11 10 9 10 10 11 9 7 5 6 7 6 5 5 4 5 5 7 9 10 9 11 17 21 23 19 14 12 11 8 8 9 8 7 7 9 10 9 6 6
18 16 15 14 13 11 11 11 12 11 10 8 7 9 9 6 5 5 5 5 6 8 9 9 11 16 20 21 17 11 8 6 4 4 5 5 5 7 9 9 7 5 4
21 20 20 19 17 14 14 15 15 14 13 12 11 11 10 7 6 8 7 6 7 10 12 13 14 17 18 17 14 8 4 3 2 2 3 3 4 6 8 9 7 5 4
25 25 25 24 20 17 17 19 18 16 15 14 12 10 9 9 10 12 11 9 8 11 14 16 18 17 15 13 10 5 3 2 1 1 1 2 2 3 6 7 7 5 4
22 26 27 25 22 19 19 20 20 18 17 16 11 8 8 10 12 13 13 11 8 8 11 14 16 16 13 11 8 5 3 3 2 1 1 1 0 1 3 4 4 3 2
18 22 25 24 22 21 21 21 20 19 18 17 13 11 10 10 10 11 12 10 7 5 6 9 12 13 12 10 7 5 5 4 3 3 2 1 0 0 1 1 1 1 0
19 20 21 22 20 21 23 23 20 19 19 17 16 14 11 8 7 8 9 9 7 4 4 6 9 11 11 8 6 7 7 6 4 3 2 1 0 0 0 0 0 0 0
24 22 20 20 19 20 23 23 20 18 18 16 14 12 10 6 6 7 7 7 6 5 4 5 7 10 10 8 7 8 9 7 5 3 1 1 0 0 0 0 0 0 0
27 25 22 20 20 21 22 24 22 17 15 14 11 10 8 6 5 6 7 6 5 4 4 5 6 8 10 8 7 8 8 7 4 1 0 0 0 0 0 0 0 0 0
26 25 24 22 22 23 23 23 22 17 14 12 11 10 9 7 6 7 7 5 5 5 5 5 6 7 7 6 6 6 5 5 3 1 0 0 0 0 0 0 0 0 0
23 24 25 25 26 25 24 23 21 17 13 11 12 12 10 8 7 7 7 6 6 6 6 5 5 5 4 3 4 3 2 3 3 1 1 0 0 0 0 0 0 0 0
23 26 28 29 28 25 22 21 21 16 12 11 12 12 9 6 5 5 5 6 7 7 6 5 4 3 2 2 2 1 1 1 2 3 2 1 0 0 0 0 0 0 0
29 31 31 30 27 20 14 14 15 14 11 11 10 9 7 4 3 2 2 2 3 4 4 4 3 2 2 1 1 1 1 1 3 4 3 2 1 1 1 0 0 0 0
32 32 31 29 22 14 7 6 8 9 10 10 9 8 6 4 3 2 0 0 0 1 1 1 1 1 2 2 2 2 2 2 3 4 3 2 3 3 2 1 0 0 0
28 28 27 23 17 11 5 3 3 6 7 8 7 7 6 5 4 2 1 1 1 1 0 0 0 0 1 2 2 3 3 2 2 2 3 3 4 4 3 2 1 0 0
23 23 21 16 13 9 5 2 2 5 6 5 5 5 5 4 3 2 1 2 3 2 1 0 0 0 0 1 1 2 2 2 1 1 2 3 3 3 3 3 2 1 0
20 20 17 13 10 9 5 1 2 4 5 5 5 5 4 4 3 1 1 3 4 3 1 0 0 0 0 0 0 1 1 1 2 2 2 3 3 3 3 3 2 1 0
Wind_Speed
1 2 1 1 2 2 2 2 2 2 1 1 1 1 1 2 3 4 5 10 11 10 10 9 9 8 8 7 6 6 7 7 6 6 5 5 5 5 5 5 5 5 6
1 1 2 1 1 1 1 2 2 1 1 0 1 1 2 2 3 4 5 7 10 10 9 9 8 8 8 7 6 6 6 7 6 6 5 5 5 5 4 4 5 5 5
2 1 1 1 1 1 2 1 2 1 2 1 1 2 1 2 3 4 5 5 6 8 9 8 8 8 8 7 7 6 6 6 6 6 6 6 5 5 5 5 4 5 6
1 1 0 0 1 1 1 1 1 0 0 0 1 1 1 2 3 4 4 4 5 5 8 10 9 9 8 8 7 7 6 6 6 6 6 6 6 5 5 5 5 5 6
1 1 1 0 1 1 0 1 1 0 0 1 1 1 1 2 2 4 4 4 4 5 5 8 10 10 9 8 7 7 6 6 6 6 6 6 6 6 6 5 6 6 6
1 1 1 0 1 1 1 1 1 0 1 2 2 1 1 1 1 2 3 3 4 5 6 6 6 7 9 8 7 7 7 6 6 6 6 6 5 5 5 5 6 7 7
1 0 0 1 0 0 0 1 1 1 2 1 1 1 1 2 2 1 1 2 2 3 4 6 5 4 5 8 7 6 7 7 6 6 6 5 5 5 4 4 5 5 7
0 1 0 1 1 1 0 1 1 1 2 1 1 1 1 0 0 1 2 2 2 2 2 4 4 5 4 3 5 7 7 6 6 6 6 6 5 4 3 3 4 4 7
1 0 0 0 0 1 1 1 1 2 2 1 1 0 0 0 1 1 1 1 2 2 1 2 3 4 5 4 4 6 7 6 6 5 6 5 4 4 3 3 3 4 5
1 1 1 0 1 1 0 1 1 1 1 2 1 1 1 1 1 1 1 1 2 2 2 2 2 3 4 4 4 6 7 5 5 5 5 5 4 4 4 3 3 3 4
1 2 1 1 1 0 0 1 2 1 1 2 2 1 1 1 2 1 1 1 1 1 2 2 2 2 4 4 4 5 6 5 5 4 4 4 4 4 4 4 4 4 4
1 2 1 1 0 1 1 1 1 2 2 3 3 2 1 1 1 1 1 2 1 1 1 1 1 1 2 3 5 8 7 6 5 5 4 4 4 4 4 5 5 4 4
1 1 1 1 0 1 1 1 1 2 2 2 3 2 2 2 1 1 1 1 1 1 1 1 1 2 2 3 3 7 7 7 6 5 5 4 4 3 4 4 4 5 5
0 1 1 1 1 2 2 1 1 2 1 2 3 2 3 3 2 1 1 1 1 1 1 1 1 1 2 3 4 6 5 7 7 6 6 5 4 4 3 3 3 3 3
0 1 1 1 1 1 2 1 1 2 2 2 2 2 2 2 2 2 2 0 1 2 2 1 0 1 1 2 5 4 4 5 7 7 6 5 5 5 4 3 2 2 2
1 0 0 1 1 1 1 2 2 1 1 2 2 1 2 2 2 2 2 1 1 1 1 1 1 1 0 1 3 3 4 7 8 8 8 7 6 6 5 4 3 3 2
0 0 0 1 1 1 1 2 2 1 2 2 2 1 2 2 2 3 2 2 1 1 1 2 0 0 0 0 0 2 3 4 4 8 8 8 8 7 7 6 5 4 4
1 1 1 1 2 1 1 1 2 2 2 1 1 1 1 1 2 2 2 2 2 1 1 2 1 1 1 1 1 2 2 3 3 7 9 9 9 8 8 7 6 6 5
2 1 1 1 1 1 0 1 1 2 2 1 1 0 1 1 2 2 2 2 2 2 1 1 2 1 1 1 1 2 3 1 3 4 8 9 9 9 9 9 8 7 6
2 1 1 1 1 1 0 1 2 1 1 1 1 1 0 0 1 2 2 2 2 2 2 2 2 1 1 1 0 1 2 1 3 2 2 4 7 9 9 9 8 8 7
1 1 1 1 1 1 1 1 2 1 1 1 1 1 1 1 1 1 2 2 2 2 2 2 2 1 1 1 1 2 2 2 2 1 1 2 3 4 5 7 8 8 8
1 1 1 1 1 1 1 1 1 2 1 1 1 1 1 1 1 1 1 1 1 1 2 2 2 1 1 1 1 2 2 2 2 1 1 2 2 3 4 5 8 9 10
1 1 1 1 1 1 2 2 2 2 1 1 1 1 2 2 2 1 1 2 2 3 3 2 2 2 2 2 2 3 2 2 2 2 2 3 2 2 3 4 9 10 10
1 1 0 0 1 1 1 1 2 2 1 1 1 1 1 1 2 2 1 1 2 2 3 3 2 3 2 2 2 3 4 4 3 2 1 2 2 2 3 2 8 10 11
1 1 1 1 1 1 1 1 1 2 1 1 1 0 1 2 0 1 2 2 3 2 3 4 4 4 5 4 3 2 3 2 3 3 1 2 2 2 2 1 3 9 10
1 1 1 1 1 2 2 1 0 1 1 1 1 1 1 1 2 1 2 3 3 3 3 3 3 5 5 5 5 3 2 2 2 2 1 1 2 1 2 2 1 2 4
Wind_Direction
149 147 159 187 204 186 188 212 234 234 228 247 246 195 161 141 136 138 142 162 163 167 173 178 184 186 188 184 188 195 195 194 194 197 201 205 206 206 205 207 205 200 203
152 157 167 195 225 203 204 210 212 219 234 275 307 203 153 149 138 149 151 163 170 173 176 179 183 184 186 186 189 187 193 197 195 195 197 201 204 203 203 204 208 206 201
161 185 188 202 234 228 202 206 224 196 200 200 211 222 169 158 156 162 161 165 171 178 180 178 177 181 183 186 190 194 198 197 192 195 199 202 202 200 201 207 212 213 210
160 173 185 212 260 255 231 208 222 233 296 273 228 249 174 157 171 174 172 171 169 171 178 182 180 183 186 190 192 195 196 196 194 195 198 202 204 205 210 213 218 217 211
150 168 165 251 270 282 319 302 75 35 308 303 259 200 196 186 186 189 172 176 172 163 164 176 183 188 189 191 195 198 197 198 196 197 198 200 206 208 213 218 219 214 208
162 231 164 182 306 4 13 18 11 312 270 265 284 275 219 196 197 186 178 177 176 172 166 167 175 191 189 193 198 202 202 204 202 200 200 202 206 210 215 220 220 217 213
138 303 316 146 255 52 357 3 314 275 260 230 289 306 278 203 178 180 184 165 164 170 162 161 169 169 180 193 198 201 207 211 208 204 204 206 210 213 215 224 225 225 216
247 213 202 226 160 144 268 287 285 293 278 237 236 269 298 337 341 188 168 172 169 166 169 166 170 167 172 167 188 203 212 215 211 211 208 206 210 211 213 223 224 218 206
193 266 115 310 185 184 226 245 281 266 286 290 280 239 240 249 285 233 207 178 162 158 177 158 172 166 173 162 166 194 200 204 202 207 209 209 207 204 209 214 217 208 191
186 176 177 252 282 291 349 275 259 283 281 292 276 255 245 150 199 287 297 178 189 181 188 197 176 165 160 155 157 162 178 192 195 205 206 206 205 202 206 211 216 205 197
188 176 178 214 266 293 314 303 336 318 311 295 290 270 250 226 224 202 247 248 267 210 190 198 182 164 156 159 149 158 175 186 190 198 199 200 205 208 210 216 221 215 207
192 190 171 167 242 289 287 271 299 297 298 306 311 311 307 261 247 228 233 241 236 243 222 182 159 143 154 148 152 161 172 172 179 189 191 195 203 209 212 218 224 220 220
173 169 160 142 264 274 277 293 264 285 287 290 295 306 306 292 285 264 252 260 262 254 239 181 163 150 158 128 143 159 171 175 182 188 190 192 196 203 212 221 225 224 224
118 125 137 169 243 276 282 275 278 271 270 281 291 299 303 300 316 305 272 257 273 272 265 258 177 164 144 143 165 171 175 182 188 189 191 192 192 193 201 212 221 229 234
197 117 140 168 240 283 304 290 266 286 293 285 287 288 289 303 314 316 310 260 229 268 273 269 330 211 155 145 167 186 171 183 191 194 196 195 195 193 191 196 203 213 221
359 82 168 196 230 276 289 295 281 258 283 293 285 307 305 302 311 312 313 316 295 262 281 261 235 228 150 180 185 195 183 188 198 196 197 195 195 193 186 183 187 193 200
234 217 249 238 233 249 258 268 274 271 267 281 295 311 307 317 332 325 331 329 332 358 300 293 309 41 190 273 199 230 193 189 196 200 199 196 195 190 187 190 195 197 201
213 208 226 235 234 230 245 254 274 285 272 269 286 303 323 326 334 332 333 329 332 337 326 296 296 267 225 235 212 249 239 205 203 200 195 194 192 193 191 195 199 202 206
198 214 209 216 228 230 255 280 279 287 290 291 298 320 335 348 340 329 319 328 325 324 314 281 276 270 246 246 238 267 278 271 241 193 194 196 200 199 198 198 201 204 209
191 203 220 217 188 140 315 310 301 287 300 316 323 343 15 34 323 314 315 344 335 326 309 286 268 265 272 285 268 285 291 280 279 245 201 195 206 205 203 200 203 206 210
208 206 220 227 224 189 297 318 292 265 289 312 328 8 77 79 47 360 352 356 341 328 313 303 304 332 339 338 315 286 289 285 270 266 199 216 199 210 212 211 211 208 207
205 201 215 221 233 273 3 25 346 295 277 269 282 293 202 127 117 104 38 0 345 313 319 315 314 316 304 303 298 299 309 305 291 297 279 267 219 210 209 203 205 205 208
200 198 221 205 137 72 55 52 1 306 276 283 324 316 309 35 75 23 239 229 252 251 245 259 286 291 293 291 296 301 301 292 275 280 263 263 258 247 238 222 193 198 209
220 194 225 140 111 95 69 34 334 276 273 255 250 224 147 57 8 3 313 286 262 255 244 229 234 262 265 279 276 272 276 278 259 270 257 261 259 257 257 222 194 198 209
214 193 189 164 148 119 131 89 318 252 228 227 218 162 160 151 359 345 288 278 280 268 256 251 237 243 248 249 261 296 296 287 282 276 253 253 278 285 270 227 213 212 217
229 182 142 155 169 140 143 127 353 271 261 267 207 166 140 187 216 234 264 275 279 285 288 272 256 249 240 236 226 226 253 275 282 283 292 285 289 301 290 274 245 216 227